Flag for Norway Weather past 2 weeks in Randaberg, Norway

Now
60 °F

Overcast.


Feels Like: 60 °F
Forecast: 55 / 65 °F
Wind: 5 mph from Southeast

Location: Stavanger / Sola

Current Time: Aug 30, 2014 at 2:46:27 AM

Latest Report: Aug 30, 2014 at 2:00 AM


Visibility: 31 mi

Pressure: 29.79 "Hg

Humidity: 74%

Dew point: 52 °F

Location of RandabergLocation

Historic Weather in Randaberg — Graph

°F

Randaberg temperature yesterday

Maximum temperature yesterday: 66 °F (at 4:00 PM)
Minimum temperature yesterday: 54 °F (at 1:00 AM)
Average temperature yesterday: 60 °F

Past Weeks' High & Low Weather Summary

 TemperatureHumidityPressure
High66 °F (Aug 29, 4:00 PM)98% (Aug 27, 6:00 AM)29.99 "Hg (Aug 27, 6:00 AM)
Low48 °F (Aug 22, 6:00 AM)58% (Aug 28, 5:00 PM)29.21 "Hg (Aug 18, 9:00 AM)
Average56 °F81%29.68 "Hg
* Reported Aug 15 1:00 AM — Aug 30 1:00 AM, Randaberg, Weather by CustomWeather, © 2014

Note: Actual official high and low records may vary slightly from our data, if they occured in-between our weather recording intervals... More about our weather records

Advertising

Randaberg weather history for previous 24 hours

 ConditionsComfort  
Time TempWeatherWind HumidityBarometerVisibility
1:00 AM
Aug 30
60 °FOvercast.3 mph75%29.79 "Hg31 mi
12:00 AM60 °FPassing clouds.5 mph75%29.80 "Hg31 mi
11:00 PM
Aug 29
59 °FClear.5 mph76%29.81 "Hg31 mi
9:00 PM58 °FPassing clouds.3 mph79%29.81 "Hg31 mi
8:00 PM58 °FLight rain. Partly sunny.5 mph84%29.81 "Hg25 mi
7:00 PM58 °FRain showers. Light fog.6 mph87%29.82 "Hg7 mi
6:00 PM62 °FOvercast.6 mph69%29.81 "Hg31 mi
5:00 PM65 °FPassing clouds.10 mph59%29.80 "Hg22 mi
4:00 PM66 °FScattered clouds.10 mph60%29.79 "Hg22 mi
3:00 PM65 °FRain showers. Partly sunny.10 mph62%29.81 "Hg15 mi
2:00 PM64 °FOvercast.9 mph60%29.82 "Hg25 mi
1:00 PM64 °FScattered clouds.12 mph61%29.81 "Hg22 mi
12:00 PM62 °FLight rain. Partly sunny.8 mph68%29.82 "Hg25 mi
11:00 AM60 °FLight rain. Scattered clouds.7 mph76%29.83 "Hg12 mi
10:00 AM61 °FPartly sunny.8 mph71%29.82 "Hg28 mi
9:00 AM59 °FRain showers. Partly sunny.5 mph79%29.83 "Hg16 mi
8:00 AM61 °FPartly sunny.8 mph66%29.82 "Hg31 mi
7:00 AM62 °FOvercast.7 mph64%29.82 "Hg31 mi
6:00 AM61 °FPassing clouds.6 mph64%29.83 "Hg31 mi
5:00 AM60 °FClear.3 mph61%29.83 "Hg31 mi
4:00 AM59 °FClear.3 mph62%29.85 "Hg31 mi
3:00 AM57 °FClear.3 mph65%29.87 "Hg31 mi
2:00 AM56 °FClear.3 mph63%29.88 "Hg31 mi
Weather by CustomWeather, © 2014

See weather overviewHow to use our weather pages